Home   Weather   São Paulo   Past weeks

Flag for Brazil Past Weather in São Paulo, São Paulo, Brazil — Yesterday and Last 2 Weeks

Now
59 °F

Mostly cloudy.


Feels Like: 57 °F
Forecast: N/A
Wind: 10 mph from Southeast

Location: Sao Paulo Airport

Current Time: Oct 1, 2016 at 7:18:25 PM

Latest Report: Oct 1, 2016 at 7:00 PM


Visibility: N/A

Pressure: 30.21 "Hg (27.59 "Hg at 765m altitude)

Humidity: 88%

Dew Point: 55 °F

Location of São PauloLocation

Past Weather in São Paulo — Graph

°F

São Paulo Temperature Yesterday

Maximum temperature yesterday: 66 °F (at 11:00 AM)
Minimum temperature yesterday: 55 °F (at 11:01 PM)
Average temperature yesterday: 60 °F

High & Low Weather Summary for the Past Weeks

 TemperatureHumidityPressure
High90 °F (Sep 18, 1:00 PM)94% (Sep 25, 9:00 PM)30.27 "Hg (Sep 25, 9:00 PM)
Low50 °F (Sep 27, 3:00 AM)29% (Sep 29, 10:00 AM)30.01 "Hg (Sep 18, 3:00 PM)
Average62 °F77%30.14 "Hg
* Reported Sep 16 5:00 PM — Oct 1 5:00 PM, São Paulo, Weather by CustomWeather, © 2016

Note: Actual official high and low records may vary slightly from our data, if they occured in-between our weather recording intervals... More about our weather records

Advertising

São Paulo Weather History for the Previous 24 Hours

Scroll right to see more
 ConditionsComfort  
Time TempWeatherWind HumidityBarometerVisibility
5:00 PM
Sat, Oct 1
59 °FMore clouds than sun.13 mph88%30.21 "HgN/A
4:00 PM59 °FMore clouds than sun.15 mph88%30.21 "HgN/A
3:00 PM61 °FCloudy.16 mph83%30.21 "HgN/A
2:00 PM63 °FCloudy.15 mph77%30.21 "HgN/A
1:00 PM63 °FPartly sunny.16 mph77%30.21 "HgN/A
12:00 PM64 °FPartly sunny.15 mph68%30.24 "HgN/A
11:00 AM64 °FOvercast.13 mph68%30.24 "HgN/A
10:00 AM64 °FPartly sunny.10 mph68%30.24 "HgN/A
9:00 AM61 °FPartly sunny.13 mph72%30.24 "HgN/A
8:00 AM57 °FPartly sunny.9 mph82%30.24 "HgN/A
7:00 AM57 °FLow clouds.9 mph82%30.24 "HgN/A
6:00 AM57 °FPartly sunny.9 mph82%30.21 "HgN/A
5:00 AM55 °FMostly cloudy.12 mph88%30.15 "HgN/A
4:00 AM55 °FLow clouds.15 mph88%30.15 "HgN/A
3:46 AM55 °FLow clouds.14 mph88%30.15 "HgN/A
3:01 AM55 °FLow clouds.10 mph88%30.15 "HgN/A
2:00 AM55 °FMostly cloudy.14 mph88%30.18 "HgN/A
1:00 AM55 °FMostly cloudy.12 mph88%30.18 "HgN/A
12:00 AM55 °FFog.17 mph88%30.18 "Hg1 mi
11:01 PM
Fri, Sep 30
55 °FMostly cloudy.14 mph94%30.18 "Hg6 mi
10:00 PM57 °FMostly cloudy.13 mph82%30.18 "HgN/A
9:00 PM57 °FLow clouds.14 mph88%30.18 "HgN/A
8:00 PM57 °FMostly cloudy.13 mph82%30.18 "HgN/A
7:00 PM57 °FMostly cloudy.15 mph88%30.12 "HgN/A
Weather by CustomWeather, © 2016

See weather overviewHow to use our weather pages